Regional Weather Roundup
Issued by NWS

Home | Current Version | Previous Version | Graphics & Text | Print | Product List | Glossary On
Versions: 1 2 3 4 5 6 7 8 9 10 11 12 13 14 15 16 17 18 19 20 21 22 23 24 25 26 27 28 29 30 31 32 33 34 35 36 37 38 39 40 41 42 43 44 45 46 47 48 49 50
903
ASUS45 KBOU 061407
RWRCO

WEATHER ROUNDUP FOR COLORADO
NATIONAL WEATHER SERVICE DENVER/BOULDER CO
700 AM MST SAT FEB 06 2016

NOTE: "FAIR" INDICATES FEW OR NO CLOUDS BELOW 12000 FEET WITH NO
SIGNIFICANT WEATHER AND/OR OBSTRUCTIONS TO VISIBILITY.

COZ001>005-013-030-031-061500-
...NORTHWEST COLORADO...

CITY           SKY/WX    TMP DP  RH WIND       PRES   REMARKS
CRAIG          CLOUDY   -11 -16  78 CALM      30.50S
HAYDEN         CLOUDY     5  -2  72 SE12      30.46S WCI -11
MEEKER         CLOUDY     0  -6  76 CALM      30.50R
MOUNT WERNER   NOT AVBL
STEAMBOAT SPGS CLOUDY     2   0  90 CALM      30.46F
WALDEN         CLOUDY     9   1  72 SE8       30.38S WCI  -4
$$

COZ006>008-011-061500-
...WEST CENTRAL VALLEYS...

CITY           SKY/WX    TMP DP  RH WIND       PRES   REMARKS
GRAND JUNCTION CLOUDY     0  -3  87 CALM      30.59S
MONTROSE       CLOUDY     4  -2  76 S7        30.59R WCI  -8
EAGLE          PTCLDY    -6  -8  92 VRB5      30.61R WCI -17
RIFLE          CLOUDY     2  -3  80 SE5       30.59R WCI  -8
DELTA          CLOUDY     9   5  85 E6        30.60R WCI  -1
NUCLA          CLOUDY     9   1  72 E9        30.57F WCI  -5
$$

COZ017>023-064>068-061500-
...SOUTHWEST COLORADO...

CITY           SKY/WX    TMP DP  RH WIND       PRES   REMARKS
DURANGO        CLOUDY     2  -2  83 CALM      30.46R
CORTEZ         CLOUDY     6   1  80 NE10      30.49F WCI  -9
PAGOSA SPRINGS CLOUDY   N/A N/A N/A CALM      30.41F
TELLURIDE      CLOUDY    14   7  72 SE9       30.44S WCI   2
WOLF CREEK PAS CLOUDY    19   0  42 N8        30.41R WCI   9
$$

COZ009-010-012-014-032>034-037-058>063-061500-
...CENTRAL COLORADO...

CITY           SKY/WX    TMP DP  RH WIND       PRES   REMARKS
ASPEN          CLOUDY     1  -4  79 S5        30.45S WCI  -9
BUENA VISTA    CLOUDY     3  -4  72 SE3       30.36R
COPPER MTN     CLOUDY    14   9  79 W17       30.35R WCI  -3
BERTHOUD PASS  CLOUDY     5  -6  61 N36G48    30.25F WCI -21
COTTONWOOD PAS CLOUDY    23   9  54 NW15G26   30.30F WCI  10
GUNNISON       CLOUDY   -20 -24  83 CALM      30.58R
KREMMLING      CLOUDY   N/A N/A N/A CALM      30.53R
LEADVILLE      CLOUDY     4   0  83 NE7       30.36S WCI  -8
MONARCH PASS     N/A      5   1  85 MISG      30.40S
SALIDA         NOT AVBL
SUNLIGHT       CLOUDY    14  12  92 CALM        N/A
WILKERSON PASS CLOUDY    18   5  57 NW12G26   30.28R WCI   5
$$

COZ069>075-061500-
...SAN LUIS VALLEY/SANGRE DE CRISTO MOUNTAINS...

CITY           SKY/WX    TMP DP  RH WIND       PRES   REMARKS
ALAMOSA        CLOUDY    -9 -14  78 SW3       30.44R
LA VETA PASS   CLOUDY     5   0  78 MISG      30.27S
SAGUACHE       CLOUDY     9   0  66 N10       30.42S WCI  -6
$$

COZ035-036-038>040-061500-
...NORTHERN COLORADO FRONT RANGE...

CITY           SKY/WX    TMP DP  RH WIND       PRES   REMARKS
DENVER INTL AP CLOUDY    23   7  50 SW16      30.19R WCI  10
DMNS CITY PARK   N/A     27   6  42 S9        30.20S WCI  18
AURORA         PTCLDY    23   7  50 S13       30.20R WCI  11
FRONT RANGE AP PTCLDY    25   7  46 MISG      30.20
ERIE MUNI ARPT CLOUDY     8   5  86 CALM      30.19F
BOULDER MUN AP CLOUDY    21   9  58 CALM      30.18S
CENTENNIAL     CLOUDY    28   6  39 W6        30.20S WCI  22
BROOMFIELD     PTCLDY    21   9  58 CALM      30.19S
FORT COLLINS   CLOUDY     7   1  78 N5        30.19F WCI  -2
LONGMONT       CLOUDY     8   1  72 CALM      30.21S
$$

COZ041-046-047-076>085-087-088-061500-
...PIKES PEAK/PALMER DIVIDE AND SOUTHERN FOOTHILLS...

CITY           SKY/WX    TMP DP  RH WIND       PRES   REMARKS
COLO. SPRINGS  CLOUDY    19   2  47 N8        30.23S WCI   9
A. F. ACADEMY  CLOUDY     9  -1  63 N9        30.21F WCI  -5
SCHRIEVER AFB  FAIR      17   1  49 W3        30.22F
ELLICOTT       NOT AVBL
FALCON         CLOUDY    15  -1  49 W8        30.22S WCI   4
FORT CARSON    CLOUDY    18   4  56 N13       30.21S WCI   4
LIMON          CLOUDY    -1  -7  75 N7        30.23S WCI -14
MONUMENT HILL  CLOUDY    19   3  49 SW12      30.22S WCI   7
TRINIDAD       CLOUDY    18   6  59 W13       30.27S WCI   5
$$

COZ042>045-048>051-090-091-061500-
...NORTHEAST COLORADO...

CITY           SKY/WX    TMP DP  RH WIND       PRES   REMARKS
GREELEY ARPT   CLOUDY     3   1  92 W3        30.22F
AKRON          CLOUDY    15   4  61 W8        30.19S WCI   4
BURLINGTON     CLOUDY    16   6  65 SW12      30.23S WCI   3
WRAY           CLOUDY    13   6  73 W3        30.21F
STERLING       CLOUDY     9   3  78 SW7       30.21S WCI  -3
HOLYOKE        CLOUDY    19  12  73 W12       30.19F WCI   7
FORT MORGAN    CLOUDY     3   0  86 W15       30.21S WCI -16
$$

COZ086-089-092>099-061500-
...SOUTHEAST COLORADO...

CITY           SKY/WX    TMP DP  RH WIND       PRES   REMARKS
PUEBLO         CLEAR     12   6  77 W6        30.26S WCI   3
LA JUNTA       CLOUDY    14   8  77 W14       30.28F WCI  -1
LAMAR          CLEAR     12   9  87 S9        30.30R WCI   0
SPRINGFIELD      N/A     18  10  71 SW10      30.29R WCI   6
$$




USA.gov is the U.S. government's official web portal to all federal, state and local government web resources and services.